Weather in West Palm Beach

United States     26°42′21″N   80°03′02″W
temp.,
°C
wind,
m/s
gust,
m/s
humid.,
%
clouds,
%
prec.,
mm/h
press.,
hPa
HPBL,
m
26 may, thu
thu2623:00+26ese6771100 0.0 1020932
02:00+26ese567080 0.0 1019927
05:00+26ese6769100 0.0 1018954
08:00+26ese776656 0.0 10191242
11:00+28ese676130 0.0 10201329
14:00+28ese675814 0.0 10191275
17:00+28ese5568100 0.0 1018917
20:00+27se5673100 0.0 1017815
27 may, fri
fri2723:00+27se56745 0.0 1018869
02:00+26se677719 0.1 1016797
05:00+26se567467 0.0 1016788
08:00+27se556621 0.1 10171098
11:00+28se566526 0.0 10171073
14:00+28se76668 0.0 10161066
17:00+28se77663 0.0 1015882
20:00+26sse67761 0.4 1015554
28 may, sat
sat2823:00+27sse67750 0.6 1015628
02:00+25s467918 4.9 1014381
05:00+25ssw35782 1.1 1014479
08:00+26ssw34750 1.4 1014518
11:00+28se446117 0.0 10141121
14:00+27se667311 1.4 1014462
17:00+28se776813 0.9 1013677
20:00+27sse57732 1.8 1013384
29 may, sun
sun2923:00+27sse466960 1.1 1014327
02:00+27sse46720 1.4 1014340
05:00+26s46770 0.8 1014377
08:00+26ssw34700 0.9 1015468
11:00+28se43642 0.1 1016895
14:00+29ese55630 0.4 1015731
17:00+28e666665 0.0 1015847
20:00+27e67764 0.0 1014759
30 may, mon
mon3023:00+27e5779100 0.0 1017771
02:00+26se468188 3.3 1017555
05:00+26e4581100 0.1 1016504
08:00+26e4580100 1.4 1018649
11:00+28e66709 0.1 10181025
14:00+28ese666699 0.6 10181139
17:00+28ese666851 0.3 10171018
20:00+26e687515 1.9 1017884